Погода в Юрьевке

Россия / Омская область     54°01′31″N   73°23′35″E
темп.,
°C
ветер,
м/с
пор.,
м/с
влажн.,
%
обл.,
%
осадки,
мм/ч
давл.,
гПа
погр.,
м
20 января, чт
чт2000:00−17зюз36965 0.0 102860
03:00−18юз46975 0.0 103067
06:00−18зюз46955 0.0 103069
09:00−19зюз359734 0.0 103260
12:00−16зюз359392 0.0 1032100
15:00−14юз359271 0.0 103292
18:00−19ююз229788 0.0 103319
21:00−21ююв229531 0.0 10339
21 января, пт
пт2100:00−21ю33975 0.0 103318
03:00−22ююв22995 0.0 103227
06:00−22юв2210047 0.0 103217
09:00−19юв3599100 0.0 103156
12:00−15юв3694100 0.0 1031124
15:00−13вюв3693100 0.0 1030140
18:00−15вюв3694100 0.0 103073
21:00−16вюв369499 0.0 103062
22 января, сб
сб2200:00−17юв369499 0.0 103172
03:00−18вюв3497100 0.0 103149
06:00−18вюв3496100 0.0 103252
09:00−19вюв349732 0.0 103353
12:00−16вюв36945 0.0 1033120
15:00−14вюв36925 0.0 1033126
18:00−18вюв359617 0.0 103448
21:00−18вюв479620 0.0 103480
23 января, вс
вс2300:00−20вюв35985 0.0 103555
03:00−20в369837 0.0 103569
06:00−20в369829 0.0 103566
09:00−21в359766 0.0 103656
12:00−17в389371 0.0 1037144
15:00−15в369387 0.0 1036138
18:00−17в3596100 0.0 103770
21:00−16в3697100 0.0 103886
24 января, пн
пн2400:00−17всв3497100 0.0 103861
03:00−18всв3497100 0.0 103861
06:00−18всв3498100 0.0 103856
09:00−18св3498100 0.0 103953
12:00−15всв2495100 0.0 103999
15:00−13ссв2395100 0.0 1038102
18:00−17ссв2298100 0.0 103830
21:00−16ссв2397100 0.0 103846